This is the latest recevied weather packets stored in our database for station/object PY5KT-13. If no packets are shown the sender has not sent any weather packets the latest 10 day(s).
| Time | Temp. | Humidity | Pressure | Rain* | Wind** | Luminosity | Snow |
|---|---|---|---|---|---|---|---|
| 1788144687 | 59° F | 99% | 763.6 mmHg | 0.26 in | - | 0 W/m² | - |
| 1788144386 | 60° F | 99% | 763.5 mmHg | 0.27 in | - | 0 W/m² | - |
| 1788144084 | 60° F | 99% | 763.5 mmHg | 0.27 in | - | 0 W/m² | - |
| 1788143782 | 60° F | 99% | 763.6 mmHg | 0.29 in | - | 0 W/m² | - |
| 1788143481 | 60° F | 99% | 763.6 mmHg | 0.29 in | - | 0 W/m² | - |
| 1788143179 | 60° F | 99% | 764.1 mmHg | 0.29 in | - | 0 W/m² | - |
| 1788142878 | 60° F | 99% | 764.2 mmHg | 0.29 in | - | 0 W/m² | - |
| 1788142576 | 60° F | 99% | 763.8 mmHg | 0.28 in | - | 0 W/m² | - |
| 1788142274 | 59° F | 99% | 763.8 mmHg | 0.26 in | - | 0 W/m² | - |
| 1788141973 | 60° F | 99% | 764.8 mmHg | 0.07 in | - | 0 W/m² | - |
| 1788141671 | 60° F | 99% | 763.9 mmHg | 0.03 in | - | 0 W/m² | - |
| 1788141368 | 60° F | 99% | 763 mmHg | 0.03 in | - | 0 W/m² | - |
| 1788141066 | 60° F | 99% | 762.9 mmHg | 0.03 in | - | 0 W/m² | - |
| 1788140764 | 60° F | 99% | 762.8 mmHg | 0.02 in | - | 0 W/m² | - |
| 1788140462 | 60° F | 99% | 762.9 mmHg | 0.02 in | - | 0 W/m² | - |
| 1788140159 | 60° F | 99% | 762.8 mmHg | 0.02 in | - | 0 W/m² | - |
| 1788139857 | 60° F | 99% | 762.8 mmHg | 0 in | - | 0 W/m² | - |
| 1788139554 | 60° F | 99% | 762.8 mmHg | 0 in | - | 37 W/m² | - |
| 1788139252 | 60° F | 99% | 762.7 mmHg | 0 in | - | 37 W/m² | - |
| 1788138950 | 60° F | 99% | 762.7 mmHg | 0 in | - | 38 W/m² | - |
| 1788138648 | 60° F | 99% | 762.9 mmHg | 0 in | - | 38 W/m² | - |
| 1788138346 | 60° F | 99% | 763 mmHg | 0.03 in | - | 38 W/m² | - |
| 1788138045 | 60° F | 99% | 763.1 mmHg | 0.03 in | - | 37 W/m² | - |
| 1788137742 | 59° F | 99% | 763.2 mmHg | 0.03 in | - | 37 W/m² | - |
| 1788137439 | 59° F | 99% | 763.1 mmHg | 0.03 in | - | 37 W/m² | - |
* Rain latest hour (hover to see other rain measurements)
** Current wind speed in m/s (hover to see current wind gust speed)